Location: Bryzozowice
(50.3667°N, 18.9667°E)
Time: 09:33:36
(UTC+00:00)

Cosmos 2263 Rocket - Pass Details

Date: 24 January 2020
Orbit: 822 x 849 km, 71.0° (Epoch: 27 February)

Event Time Altitude Azimuth Distance (km) Brightness Sun altitude
Rises 17:51:32 0° 176° (S) 3,344 5.3 -23.4°
Reaches altitude 10° 17:54:10 10° 166° (SSE) 2,418 4.5 -23.8°
Enters shadow 17:54:56 14° 162° (SSE) 2,172 4.2 -24.0°
